| time (UTC) | temp F | wind direction | speed MPH | gust MPH | rain 1hr in | rain 24hr in | rain mn in | humidity % | barometer mb |
| 20260831034530 | 63 | 152 | 0.0 | 1.0 | 0.00 | 1.61 | 1.61 | 75 | 1015.9 |
| 20260831033032 | 63 | 143 | 0.0 | 2.0 | 0.00 | 1.61 | 1.61 | 75 | 1015.9 |
| 20260831031533 | 63 | 140 | 0.0 | 3.0 | 0.00 | 1.61 | 1.61 | 75 | 1015.9 |
| 20260831030025 | 63 | 167 | 0.0 | 3.0 | 0.00 | 1.61 | 1.61 | 75 | 1015.7 |
| 20260831024524 | 63 | 169 | 0.0 | 2.0 | 0.00 | 1.61 | 1.61 | 75 | 1015.9 |
| 20260831023024 | 63 | 189 | 1.0 | 2.0 | 0.00 | 1.61 | 1.61 | 75 | 1015.9 |
| 20260831021525 | 63 | 149 | 0.0 | 3.0 | 0.00 | 1.61 | 1.61 | 75 | 1016.0 |
| 20260831020022 | 63 | 145 | 0.0 | 3.0 | 0.00 | 1.61 | 1.61 | 75 | 1015.9 |
| 20260831014624 | 64 | 141 | 0.0 | 3.0 | 0.00 | 1.61 | 1.61 | 75 | 1016.0 |
| 20260831013021 | 64 | 188 | 0.0 | 3.0 | 0.00 | 1.61 | 1.61 | 75 | 1016.0 |
| 20260831011526 | 64 | 150 | 0.0 | 2.0 | 0.06 | 1.61 | 1.61 | 76 | 1016.0 |
| 20260831010021 | 64 | 179 | 1.0 | 0.0 | 0.00 | 0.00 | 1.61 | 75 | 1015.9 |
| 20260831004518 | 65 | 239 | 0.0 | 3.0 | 0.25 | 1.61 | 1.61 | 74 | 1016.1 |
| 20260831003020 | 65 | 147 | 0.0 | 2.0 | 0.28 | 1.61 | 1.61 | 74 | 1016.0 |
| 20260831001517 | 65 | 193 | 1.0 | 3.0 | 0.22 | 1.54 | 1.54 | 73 | 1016.2 |
| 20260831000020 | 66 | 191 | 0.0 | 3.0 | 0.14 | 1.44 | 1.44 | 72 | 1016.6 |
| 20260830234514 | 66 | 176 | 0.0 | 1.0 | 0.08 | 1.35 | 1.35 | 72 | 1016.9 |
| 20260830233014 | 66 | 219 | 0.0 | 4.0 | 0.06 | 1.33 | 1.33 | 72 | 1016.9 |
| 20260830231516 | 66 | 172 | 0.0 | 2.0 | 0.06 | 1.32 | 1.32 | 71 | 1016.8 |
| 20260830230013 | 66 | 239 | 0.0 | 1.0 | 0.03 | 1.30 | 1.30 | 71 | 1017.2 |
| 20260830224513 | 66 | 242 | 0.0 | 1.0 | 0.01 | 1.28 | 1.28 | 71 | 1017.3 |
| 20260830223013 | 66 | 238 | 0.0 | 1.0 | 0.03 | 1.27 | 1.27 | 71 | 1017.1 |
| 20260830221512 | 66 | 236 | 0.0 | 1.0 | 0.03 | 1.27 | 1.27 | 71 | 1017.1 |
| 20260830220011 | 66 | 198 | 0.0 | 1.0 | 0.06 | 1.27 | 1.27 | 72 | 1016.7 |
| 20260830214510 | 66 | 214 | 0.0 | 1.0 | 0.06 | 1.27 | 1.27 | 71 | 1016.5 |
| 20260830213011 | 66 | 132 | 0.0 | 1.0 | 0.05 | 1.24 | 1.24 | 71 | 1016.4 |
| 20260830211510 | 66 | 122 | 0.0 | 1.0 | 0.09 | 1.24 | 1.24 | 70 | 1016.1 |
| 20260830210007 | 65 | 15 | 0.0 | 2.0 | 0.09 | 1.21 | 1.21 | 71 | 1016.1 |
| 20260830204505 | 65 | 152 | 0.0 | 2.0 | 0.11 | 1.20 | 1.20 | 73 | 1016.4 |
| 20260830203007 | 65 | 133 | 1.0 | 3.0 | 0.13 | 1.18 | 1.18 | 75 | 1016.5 |
| 20260830201502 | 65 | 120 | 0.0 | 4.0 | 0.16 | 1.13 | 1.13 | 74 | 1016.6 |
| 20260830200100 | 64 | 121 | 0.0 | 3.0 | 0.17 | 1.12 | 1.12 | 75 | 1016.7 |
| 20260830194558 | 64 | 101 | 0.0 | 3.0 | 0.15 | 1.09 | 1.09 | 75 | 1017.0 |
| 20260830193058 | 64 | 141 | 0.0 | 3.0 | 0.11 | 1.06 | 1.06 | 76 | 1017.0 |
| 20260830191556 | 64 | 146 | 0.0 | 4.0 | 0.08 | 0.99 | 0.99 | 76 | 1016.9 |
| 20260830190055 | 64 | 129 | 1.0 | 4.0 | 0.06 | 0.96 | 0.96 | 76 | 1017.3 |
| 20260830184556 | 64 | 152 | 0.0 | 3.0 | 0.12 | 0.94 | 0.94 | 76 | 1017.3 |
| 20260830183052 | 64 | 98 | 0.0 | 4.0 | 0.14 | 0.94 | 0.94 | 77 | 1017.4 |
| 20260830181552 | 64 | 127 | 0.0 | 3.0 | 0.15 | 0.91 | 0.91 | 78 | 1017.4 |
| 20260830180050 | 64 | 183 | 0.0 | 2.0 | 0.17 | 0.90 | 0.90 | 78 | 1017.4 |
| 20260830174548 | 64 | 139 | 0.0 | 3.0 | 0.11 | 0.83 | 0.83 | 78 | 1017.6 |
| 20260830173048 | 65 | 130 | 0.0 | 2.0 | 0.16 | 0.80 | 0.80 | 78 | 1017.6 |
| 20260830171547 | 65 | 127 | 0.0 | 2.0 | 0.22 | 0.76 | 0.76 | 79 | 1018.0 |
| 20260830170045 | 65 | 129 | 0.0 | 1.0 | 0.31 | 0.73 | 0.73 | 79 | 1018.2 |
| 20260830164548 | 65 | 153 | 0.0 | 1.0 | 0.39 | 0.72 | 0.72 | 79 | 1018.2 |
| 20260830163045 | 64 | 43 | 0.0 | 1.0 | 0.44 | 0.65 | 0.65 | 81 | 1018.4 |
| 20260830161558 | 64 | 189 | 0.0 | 1.0 | 0.35 | 0.54 | 0.54 | 84 | 1018.5 |
| 20260830160045 | 65 | 226 | 0.0 | 3.0 | 0.23 | 0.42 | 0.42 | 84 | 1018.7 |
| 20260830154542 | 65 | 229 | 0.0 | 2.0 | 0.14 | 0.32 | 0.32 | 84 | 1018.9 |
| 20260830153040 | 66 | 239 | 0.0 | 2.0 | 0.03 | 0.20 | 0.20 | 82 | 1018.7 |
| 20260830151540 | 66 | 152 | 0.0 | 1.0 | 0.02 | 0.19 | 0.19 | 77 | 1018.2 |
| 20260830150108 | 65 | 152 | 0.0 | 2.0 | 0.02 | 0.18 | 0.18 | 77 | 1018.1 |
| 20260830144537 | 65 | 137 | 0.0 | 2.0 | 0.02 | 0.18 | 0.18 | 77 | 1018.1 |
| 20260830143042 | 65 | 142 | 0.0 | 2.0 | 0.01 | 0.17 | 0.17 | 78 | 1018.3 |
| 20260830141536 | 65 | 231 | 1.0 | 2.0 | 0.01 | 0.17 | 0.17 | 78 | 1018.3 |
| 20260830140035 | 65 | 143 | 0.0 | 1.0 | 0.01 | 0.16 | 0.16 | 77 | 1018.3 |
| 20260830134541 | 64 | 146 | 0.0 | 2.0 | 0.02 | 0.16 | 0.16 | 77 | 1018.2 |
| 20260830133044 | 64 | 153 | 0.0 | 1.0 | 0.06 | 0.16 | 0.16 | 79 | 1018.3 |
| 20260830131533 | 64 | 113 | 0.0 | 3.0 | 0.09 | 0.16 | 0.16 | 81 | 1018.3 |
| 20260830130032 | 64 | 143 | 0.0 | 2.0 | 0.10 | 0.15 | 0.15 | 82 | 1018.6 |
| 20260830124530 | 64 | 143 | 0.0 | 2.0 | 0.09 | 0.13 | 0.13 | 83 | 1018.9 |
| 20260830123029 | 64 | 127 | 0.0 | 3.0 | 0.08 | 0.10 | 0.10 | 84 | 1018.6 |
| 20260830121526 | 64 | 136 | 0.0 | 3.0 | 0.05 | 0.06 | 0.06 | 86 | 1018.5 |
| 20260830120025 | 64 | 133 | 0.0 | 2.0 | 0.05 | 0.05 | 0.05 | 88 | 1018.1 |
| 20260830114524 | 64 | 155 | 0.0 | 2.0 | 0.04 | 0.04 | 0.04 | 89 | 1017.8 |
| 20260830113023 | 65 | 65 | 0.0 | 5.0 | 0.02 | 0.02 | 0.02 | 91 | 1017.9 |
| 20260830111522 | 65 | 63 | 0.0 | 1.0 | 0.02 | 0.02 | 0.02 | 92 | 1017.7 |
| 20260830110026 | 66 | 60 | 0.0 | 1.0 | 0.00 | 0.00 | 0.00 | 92 | 1017.7 |
| 20260830104520 | 66 | 37 | 0.0 | 7.0 | 0.00 | 0.00 | 0.00 | 92 | 1017.7 |
| 20260830103019 | 66 | 63 | 1.0 | 5.0 | 0.00 | 0.00 | 0.00 | 92 | 1017.6 |
| 20260830101535 | 67 | 65 | 1.0 | 8.0 | 0.00 | 0.00 | 0.00 | 92 | 1017.8 |
| 20260830100017 | 67 | 71 | 0.0 | 7.0 | 0.00 | 0.00 | 0.00 | 92 | 1017.9 |
| 20260830094519 | 68 | 63 | 5.0 | 13.0 | 0.00 | 0.00 | 0.00 | 92 | 1017.9 |
| 20260830093016 | 68 | 40 | 9.0 | 10.0 | 0.00 | 0.00 | 0.00 | 92 | 1017.9 |
| 20260830091516 | 68 | 6 | 5.0 | 10.0 | 0.00 | 0.00 | 0.00 | 92 | 1018.3 |
| 20260830090035 | 69 | 320 | 7.0 | 9.0 | 0.00 | 0.00 | 0.00 | 91 | 1018.5 |
| 20260830084522 | 69 | 305 | 5.0 | 7.0 | 0.00 | 0.00 | 0.00 | 90 | 1018.5 |
| 20260830083023 | 67 | 323 | 2.0 | 8.0 | 0.00 | 0.00 | 0.00 | 91 | 1017.9 |
| 20260830081507 | 66 | 158 | 0.0 | 1.0 | 0.00 | 0.00 | 0.00 | 90 | 1018.0 |
| 20260830080006 | 67 | 287 | 0.0 | 2.0 | 0.00 | 0.00 | 0.00 | 90 | 1017.9 |
| 20260830074505 | 65 | 351 | 2.0 | 5.0 | 0.00 | 0.00 | 0.00 | 92 | 1017.9 |
| 20260830073005 | 65 | 152 | 0.0 | 1.0 | 0.00 | 0.00 | 0.00 | 92 | 1017.7 |
| 20260830071503 | 65 | 136 | 0.0 | 2.0 | 0.00 | 0.00 | 0.00 | 92 | 1017.7 |
| 20260830070059 | 66 | 134 | 0.0 | 1.0 | 0.00 | 0.00 | 0.00 | 91 | 1017.8 |
| 20260830064600 | 66 | 139 | 0.0 | 1.0 | 0.00 | 0.00 | 0.00 | 90 | 1017.8 |
| 20260830063057 | 66 | 122 | 0.0 | 1.0 | 0.00 | 0.00 | 0.00 | 89 | 1018.1 |
| 20260830061558 | 66 | 228 | 0.0 | 2.0 | 0.00 | 0.00 | 0.00 | 89 | 1018.2 |
| 20260830060054 | 66 | 149 | 0.0 | 1.0 | 0.00 | 0.00 | 0.00 | 89 | 1018.3 |
| 20260830054559 | 66 | 152 | 0.0 | 0.0 | 0.00 | 0.00 | 0.00 | 89 | 1018.4 |
| 20260830053053 | 67 | 146 | 0.0 | 1.0 | 0.00 | 0.00 | 0.00 | 89 | 1018.4 |
| 20260830051552 | 66 | 133 | 0.0 | 1.0 | 0.00 | 0.00 | 0.00 | 89 | 1018.4 |
| 20260830050053 | 67 | 146 | 0.0 | 1.0 | 0.00 | 0.00 | 0.00 | 88 | 1018.4 |
| 20260830044609 | 67 | 141 | 0.0 | 0.0 | 0.00 | 0.00 | 0.00 | 88 | 1018.4 |
| 20260830043049 | 67 | 143 | 0.0 | 0.0 | 0.00 | 0.00 | 0.00 | 87 | 1018.3 |
| 20260830041614 | 67 | 138 | 0.0 | 1.0 | 0.00 | 0.00 | 0.00 | 86 | 1018.3 |
| 20260830040047 | 67 | 138 | 0.0 | 0.0 | 0.00 | 0.00 | 0.00 | 86 | 1018.3 |